Location: Poughquag
(41.6090°N, 73.6820°W)
Time: 03:35:19
(UTC-04:00)

Transit 2A Rocket - Pass Details

Date: 30 May 2020
Orbit: 584 x 919 km, 66.7° (Epoch: 06 July)

Event Time Altitude Azimuth Distance (km) Brightness Sun altitude
Rises 22:06:46 0° 176° (S) 3,000 - -15.8°
Reaches altitude 10° 22:09:16 10° 164° (SSE) 2,144 - -16.1°
Exits shadow 22:12:41 26° 121° (ESE) 1,412 5.8 -16.5°
Maximum altitude 22:13:21 27° 107° (ESE) 1,398 5.9 -16.5°
Drops below altitude 10° 22:17:46 10° 52° (NE) 2,345 7.5 -17.0°
Sets 22:20:37 0° 41° (NE) 3,340 8.5 -17.4°
